West Memphis, AR

6:43 PM CDT on April 23, 2017 (GMT -0500)
West Memphis Municipal

Weather History for KAWM - October, 2012

Change the Weather History Date:

Saturday, October 20, 2012

  Actual Average Record
Temperature  
Mean Temperature 55 °F -  
Max Temperature 71 °F 72 °F 87 °F (1979)
Min Temperature 39 °F 46 °F 33 °F (1964)
Degree Days  
Heating Degree Days 10    
Growing Degree Days 5 (Base 50)    
Moisture  
Dew Point 43 °F    
Average Humidity 69    
Maximum Humidity 97    
Minimum Humidity 35    
Precipitation  
Precipitation 0.00 in - - ()
Sea Level Pressure  
Sea Level Pressure 29.92 in    
Wind  
Wind Speed 2 mph (SSE)    
Max Wind Speed 12 mph    
Max Gust Speed -    
Visibility 10 miles    
Events      
Averages and records for this station are not official NWS values.
T = Trace of Precipitation, MM = Missing Value Source: NWS Daily Summary

Daily Weather History Graph

Daily Weather History Graph

Search for Another Location

Airport or City:

Trip Planner

Search our weather history database for the weather conditions in past years. The results will help you decide how hot, cold, wet, or windy it might be!

Date:

Astronomy

Oct. 20, 2012 Rise Set
Actual Time 7:11 AM CDT 6:18 PM CDT
Civil Twilight 6:45 AM CDT 6:44 PM CDT
Nautical Twilight 6:16 AM CDT 7:14 PM CDT
Astronomical Twilight 5:46 AM CDT 7:43 PM CDT
Moon 12:41 PM CDT (10/20) 11:10 PM CDT (10/20)
Length of Visible Light 11h 58m
Length of Day
11h 07m
Waxing Crescent, 34% of the Moon is Illuminated
Oct 20
Waxing Crescent
Oct 21
First Quarter
Oct 29
Full
Nov 6
Last Quarter
Nov 13
New

Hourly Weather History & Observations

Time (CDT) Temp. Windchill Dew Point Humidity Pressure Visibility Wind Dir Wind Speed Gust Speed Precip Events Conditions
12:53 AM 42.1 °F - 39.9 °F 92% 29.88 in 10.0 mi Calm Calm - N/A   Clear
1:53 AM 43.0 °F - 39.9 °F 89% 29.88 in 10.0 mi Calm Calm - N/A   Clear
2:53 AM 42.1 °F - 39.0 °F 89% 29.89 in 10.0 mi Calm Calm - N/A   Clear
3:53 AM 42.1 °F - 41.0 °F 96% 29.89 in 10.0 mi Calm Calm - N/A   Clear
4:53 AM 42.1 °F - 41.0 °F 96% 29.90 in 10.0 mi Calm Calm - N/A   Clear
5:53 AM 41.0 °F - 39.9 °F 96% 29.92 in 7.0 mi Calm Calm - N/A   Clear
6:53 AM 39.9 °F - 39.0 °F 97% 29.93 in 10.0 mi Calm Calm - N/A   Clear
7:53 AM 43.0 °F 41.3 °F 41.0 °F 93% 29.95 in 10.0 mi South 3.5 mph - N/A   Clear
8:53 AM 51.1 °F - 46.9 °F 86% 29.98 in 10.0 mi SSE 3.5 mph - N/A   Clear
9:53 AM 57.9 °F - 45.0 °F 62% 29.97 in 10.0 mi SSE 5.8 mph - N/A   Clear
10:53 AM 62.1 °F - 43.0 °F 50% 29.97 in 10.0 mi South 6.9 mph - N/A   Clear
11:53 AM 64.0 °F - 43.0 °F 46% 29.97 in 10.0 mi South 6.9 mph - N/A   Clear
1:53 PM 68.0 °F - 43.0 °F 40% 29.92 in 10.0 mi SSE 8.1 mph - N/A   Clear
2:53 PM 71.1 °F - 42.1 °F 35% 29.90 in 10.0 mi Variable 4.6 mph - N/A   Clear
3:53 PM 71.1 °F - 42.1 °F 35% 29.89 in 10.0 mi South 6.9 mph - N/A   Clear
4:53 PM 70.0 °F - 43.0 °F 38% 29.89 in 10.0 mi SSE 11.5 mph - N/A   Clear
5:53 PM 66.0 °F - 44.1 °F 45% 29.89 in 10.0 mi South 4.6 mph - N/A   Clear
6:53 PM 60.1 °F - 46.0 °F 60% 29.88 in 10.0 mi SSE 3.5 mph - N/A   Clear
7:53 PM 59.0 °F - 46.0 °F 62% 29.90 in 10.0 mi Calm Calm - N/A   Clear
8:53 PM 55.9 °F - 46.0 °F 69% 29.90 in 10.0 mi South 4.6 mph - N/A   Clear
9:53 PM 55.0 °F - 46.0 °F 72% 29.90 in 10.0 mi South 3.5 mph - N/A   Clear
10:53 PM 53.1 °F - 45.0 °F 74% 29.92 in 10.0 mi SE 3.5 mph - N/A   Clear
11:53 PM 54.0 °F - 45.0 °F 72% 29.93 in 10.0 mi SSE 3.5 mph - N/A   Clear